Lid_Strength_Index
-1 -1 -0 -0 0 0 0 0 1 1 1 1 1 1 1 1 1 1 1 1 1 0 1 1 1 2 2 4 3 -0 -1 -1 -0 2 3 3 4 4 7 5 5 7 7 7 7 6 4
-0 -0 -0 0 0 0 0 0 1 1 1 2 1 1 1 1 1 1 1 1 1 1 2 2 2 2 3 6 0 -1 -1 -0 1 2 2 2 3 3 5 6 6 6 7 8 8 6 6
1 -0 0 0 0 1 0 1 1 1 1 1 1 1 1 1 2 1 1 1 1 2 2 2 2 3 4 4 -0 -1 -0 0 1 2 2 1 3 4 4 7 6 6 7 7 7 6 6
1 1 -0 0 1 1 1 1 1 1 1 1 1 1 1 2 2 1 2 1 2 2 2 2 2 3 5 0 -1 -0 -0 1 1 1 2 2 2 4 5 5 6 7 7 9 7 6 5
2 1 -0 0 1 1 1 1 1 1 1 1 1 1 2 2 2 2 2 2 2 3 3 2 3 3 5 1 2 1 1 3 2 2 2 3 3 5 5 7 8 8 10 9 8 5 6
2 1 0 -0 1 1 1 1 1 1 1 1 1 2 2 2 2 2 2 2 3 3 2 2 2 5 3 4 2 2 2 2 4 4 5 4 5 7 7 8 11 10 9 8 8 7 6
2 1 0 -0 0 1 1 0 1 1 1 1 1 1 2 2 2 3 3 2 3 4 4 4 4 4 4 2 1 3 2 2 3 5 7 6 8 8 7 7 7 7 8 8 7 6 7
3 2 1 0 0 1 0 0 1 1 1 2 1 2 2 2 2 3 2 3 3 2 5 3 3 3 2 2 4 3 1 4 5 7 6 7 8 7 6 7 7 7 8 9 8 7 7
2 2 1 1 0 1 1 0 1 1 1 2 1 2 2 2 3 3 3 4 0 1 6 5 3 4 3 2 4 4 3 4 6 7 7 8 7 6 6 7 8 8 8 9 9 7 7
2 2 1 1 0 1 1 1 1 1 2 2 2 2 2 3 4 3 4 1 2 2 7 7 5 4 3 3 5 2 2 4 6 7 6 7 6 7 7 8 7 9 7 7 8 9 11
2 1 1 1 0 0 1 1 1 1 1 2 2 2 3 3 1 3 1 -1 0 1 14 6 5 2 3 5 4 4 2 4 6 7 7 8 7 7 8 8 7 9 6 7 8 9 9
1 1 1 1 1 1 2 2 1 1 2 2 2 2 2 3 3 1 0 1 2 10 14 8 5 6 6 5 5 4 4 3 4 6 6 7 5 6 7 6 6 6 7 8 8 9 13
2 1 1 1 1 1 2 2 2 2 2 2 2 2 2 2 3 -0 -0 2 9 12 7 8 7 6 6 7 7 6 6 7 8 10 9 8 8 6 5 8 6 7 9 12 13 14 14
3 2 1 1 1 1 2 2 2 2 2 2 3 3 2 2 0 1 2 6 12 9 8 6 6 6 8 7 7 7 7 8 7 7 9 10 12 7 6 7 8 8 8 11 16 16 12
3 3 1 1 1 1 2 2 2 2 2 3 3 3 4 2 2 2 5 11 10 9 7 7 7 8 9 8 7 8 8 8 7 7 9 10 11 6 6 6 6 9 10 8 12 12 14
3 2 2 1 2 1 2 2 2 2 3 3 3 4 2 -0 -0 2 7 10 8 6 6 6 9 8 10 8 8 8 9 7 8 6 6 8 11 8 7 6 6 7 7 11 11 16 17
3 3 2 1 1 1 2 2 2 2 3 3 2 5 2 -1 1 5 10 8 7 6 6 7 8 8 8 9 8 8 8 8 7 7 6 7 8 10 8 8 9 9 9 9 9 11 14
1 3 3 2 1 2 2 2 2 2 3 3 3 7 1 1 7 6 8 7 7 6 5 6 6 7 8 8 8 9 9 8 6 6 8 7 8 12 10 7 6 7 8 8 11 13 12
-0 1 2 2 1 2 3 2 2 3 3 3 5 5 1 3 10 9 7 6 6 7 6 7 7 7 7 8 10 9 8 6 6 6 7 7 10 13 11 9 7 9 8 8 9 10 13
-0 0 1 2 1 2 3 2 2 3 2 1 4 9 5 4 4 6 7 7 7 6 6 6 7 7 8 9 8 10 9 7 6 6 8 6 9 10 13 10 9 10 9 8 8 11 11
-0 -0 1 2 2 3 3 3 3 3 2 1 4 6 5 10 7 6 6 6 7 8 6 6 7 7 8 10 10 10 8 8 7 7 6 7 10 10 10 10 9 9 9 9 9 9 11
-0 -0 1 2 3 4 2 3 3 3 2 2 6 6 5 6 5 6 7 7 7 7 7 8 8 7 7 9 8 10 8 8 8 7 7 7 11 10 11 10 9 10 8 8 8 8 9
-0 0 1 3 3 3 3 3 3 3 2 3 2 2 4 7 6 7 7 6 7 6 7 6 6 7 8 8 6 6 5 6 6 8 9 9 10 11 13 11 11 14 10 8 8 7 8
0 1 3 3 3 2 3 4 3 3 1 1 1 2 5 9 7 7 6 6 7 6 7 7 6 7 6 4 4 4 5 6 6 7 7 10 10 11 13 13 19 9 8 8 8 7 6
1 3 2 3 3 3 4 4 3 3 2 1 1 2 5 12 7 7 6 6 6 6 7 7 6 5 3 5 8 10 11 11 10 8 8 7 9 13 16 13 10 10 10 9 9 9 6
3 2 3 3 4 4 4 3 3 2 2 -0 0 -0 3 8 8 5 6 6 8 8 8 7 5 3 5 7 10 13 14 11 12 11 8 9 9 10 13 18 19 10 9 6 6 10 6
3 3 4 4 5 4 4 3 3 3 2 -0 1 -0 2 5 4 4 6 7 5 7 8 7 6 6 6 9 15 13 12 9 12 13 14 12 12 14 13 16 11 8 7 6 12 10 6
4 4 4 4 4 4 3 3 3 3 2 0 1 -1 2 5 4 3 3 5 6 6 9 6 7 7 7 11 13 11 13 10 10 9 11 12 13 14 13 17 17 7 7 10 6 5 5
4 4 4 4 4 4 4 4 3 3 2 1 2 0 -0 3 4 2 2 2 3 3 5 5 6 6 6 9 10 10 13 12 11 13 8 12 9 10 10 9 6 6 5 4 4 5 5